period_start,C,m1,H,J0,J1,J2,J3,J4,J5,JA,JB,JC,JD,JJ,JK,JN,#
2015-10-29 00:04:45,0.11,3.04,0.00,11.91,17.74,21.34,15.19,50.62,1012.53,2073.00,2650.84,2483.50,2703.60,599.96,616.66,17.42,0000 0000 0000 0000 000000
2015-10-29 00:09:46,0.09,3.04,0.00,11.92,17.74,21.35,15.25,50.74,1012.66,2073.00,2649.39,2482.42,2702.42,599.91,616.62,17.47,0000 0000 0000 0000 000000
2015-10-29 00:14:47,0.13,3.05,0.00,11.92,17.74,21.33,15.24,50.64,1012.63,2073.00,2647.54,2481.07,2700.86,600.19,616.98,17.52,0000 0000 0000 0000 000000
2015-10-29 00:19:49,0.11,3.05,0.00,11.92,17.74,21.37,15.26,50.63,1012.65,2073.00,2645.81,2479.83,2699.48,599.81,616.60,17.57,0000 0000 0000 0000 000000
2015-10-29 00:24:50,0.11,3.06,0.00,11.92,17.74,21.37,15.20,50.69,1012.65,2073.00,2644.10,2478.67,2698.15,599.86,616.75,17.62,0000 0000 0000 0000 000000
2015-10-29 00:29:51,0.12,3.06,0.00,11.92,17.74,21.38,15.28,50.65,1012.63,2073.01,2642.37,2477.44,2696.75,599.92,616.68,17.67,0000 0000 0000 0000 000000
2015-10-29 00:34:52,0.12,3.07,0.00,11.92,17.74,21.36,15.13,50.65,1012.58,2073.01,2640.55,2476.07,2695.30,599.73,616.48,17.72,0000 0000 0000 0000 000000
2015-10-29 00:39:54,0.12,3.08,0.00,11.92,17.74,21.36,15.21,50.66,1012.49,2073.00,2638.95,2474.77,2693.84,599.79,616.47,17.77,0000 0000 0000 0000 000000
2015-10-29 00:44:55,0.12,3.08,0.00,11.92,17.74,21.38,15.24,50.72,1012.34,2073.01,2637.16,2473.47,2692.43,599.97,616.33,17.82,0000 0000 0000 0000 000000
2015-10-29 00:49:57,0.11,3.09,0.00,11.92,17.74,21.36,15.14,50.75,1012.33,2073.01,2635.44,2472.23,2690.96,600.06,616.66,17.87,0000 0000 0000 0000 000000
2015-10-29 00:54:58,0.13,3.09,0.00,11.92,17.74,21.36,15.21,50.78,1012.27,2073.00,2633.64,2470.88,2689.52,600.07,616.63,17.92,0000 0000 0000 0000 000000
2015-10-29 00:59:59,0.10,3.10,0.00,11.92,17.74,21.32,15.28,50.73,1012.25,2073.00,2631.91,2469.69,2688.16,600.18,616.94,17.97,0000 0000 0000 0000 000000
2015-10-29 01:05:00,0.12,3.11,0.00,11.92,17.74,21.35,15.26,50.81,1012.23,2073.01,2630.33,2468.46,2686.84,599.99,616.46,18.02,0000 0000 0000 0000 000000
2015-10-29 01:10:02,0.11,3.11,0.00,11.91,17.74,21.36,15.14,50.75,1012.23,2073.00,2628.64,2467.27,2685.52,599.92,616.37,18.08,0000 0000 0000 0000 000000
2015-10-29 01:15:03,0.10,3.12,0.00,11.89,17.74,21.35,15.26,50.78,1012.24,2073.01,2626.96,2466.05,2684.22,600.17,616.77,18.12,0000 0000 0000 0000 000000
2015-10-29 01:20:05,0.13,3.12,0.00,11.90,17.74,21.34,15.18,50.76,1012.26,2073.00,2625.34,2464.76,2682.78,599.85,616.46,18.17,0000 0000 0000 0000 000000
2015-10-29 01:25:06,0.11,3.13,0.00,11.90,17.74,21.33,15.21,50.73,1012.25,2073.01,2623.67,2463.65,2681.52,600.06,616.62,18.22,0000 0000 0000 0000 000000
2015-10-29 01:30:07,0.09,3.14,0.00,11.91,17.74,21.34,15.24,50.76,1012.27,2073.00,2622.22,2462.42,2680.25,600.01,616.58,18.28,0000 0000 0000 0000 000000
2015-10-29 01:35:09,0.11,3.14,0.00,11.92,17.74,21.37,15.23,50.69,1012.38,2073.01,2620.54,2461.26,2678.92,599.94,616.57,18.33,0000 0000 0000 0000 000000
2015-10-29 01:40:10,0.12,3.15,0.00,11.92,17.74,21.33,15.23,50.70,1012.47,2073.02,2618.72,2459.95,2677.42,600.01,616.72,18.38,0000 0000 0000 0000 000000
2015-10-29 01:45:11,0.14,3.15,0.00,11.92,17.74,21.34,15.21,50.77,1012.50,2073.01,2616.86,2458.58,2675.86,599.91,616.52,18.43,0000 0000 0000 0000 000000
2015-10-29 01:50:12,0.11,3.16,0.00,11.92,17.74,21.36,15.17,50.80,1012.29,2073.01,2615.18,2457.33,2674.49,599.93,616.50,18.48,0000 0000 0000 0000 000000
2015-10-29 01:55:14,0.12,3.17,0.00,11.92,17.74,21.36,15.15,50.78,1012.24,2073.01,2613.46,2456.05,2673.06,599.96,616.57,18.53,0000 0000 0000 0000 000000
2015-10-29 02:00:15,0.13,3.17,0.00,11.92,17.74,21.35,15.18,50.84,1012.24,2073.01,2611.67,2454.69,2671.59,600.14,616.68,18.58,0000 0000 0000 0000 000000
2015-10-29 02:05:17,0.10,3.18,0.00,11.92,17.74,21.35,15.22,50.83,1012.24,2073.00,2609.98,2453.51,2670.23,600.08,616.63,18.63,0000 0000 0000 0000 000000
2015-10-29 02:10:18,0.11,3.18,0.00,11.92,17.73,21.37,15.23,50.92,1012.22,2073.01,2608.33,2452.32,2668.86,600.13,616.67,18.68,0000 0000 0000 0000 000000
2015-10-29 02:15:19,0.10,3.19,0.00,11.91,17.72,21.33,15.22,50.78,1012.23,2073.02,2606.71,2451.21,2667.65,600.07,616.68,18.73,0000 0000 0000 0000 000000
2015-10-29 02:20:20,0.11,3.20,0.00,11.91,17.72,21.33,15.25,50.80,1012.23,2073.02,2605.02,2449.93,2666.29,600.05,616.66,18.78,0000 0000 0000 0000 000000
2015-10-29 02:25:21,0.14,3.20,0.00,11.91,17.72,21.33,15.19,50.78,1012.23,2073.01,2603.18,2448.54,2664.66,600.13,616.74,18.83,0000 0000 0000 0000 000000
2015-10-29 02:30:23,0.11,3.21,0.00,11.91,17.72,21.31,15.19,50.74,1012.23,2073.02,2601.42,2447.30,2663.24,600.10,616.66,18.88,0000 0000 0000 0000 000000
2015-10-29 02:35:24,0.11,3.21,0.00,11.89,17.72,21.33,15.34,50.93,1012.23,2073.02,2599.71,2446.06,2661.83,600.22,616.74,18.93,0000 0000 0000 0000 000000
2015-10-29 02:40:26,0.12,3.22,0.00,11.89,17.72,21.36,15.16,50.83,1012.23,2073.05,2598.05,2444.82,2660.50,599.83,616.46,18.98,0000 0000 0000 0000 000000
2015-10-29 02:45:27,0.11,3.23,0.00,11.88,17.72,21.36,15.28,50.71,1012.22,2073.01,2596.34,2443.56,2659.11,600.27,616.88,19.03,0000 0000 0000 0000 000000
2015-10-29 02:50:29,0.12,3.23,0.00,11.87,17.72,21.36,15.21,50.75,1012.22,2073.05,2594.54,2442.31,2657.69,600.12,616.75,19.08,0000 0000 0000 0000 000000
2015-10-29 02:55:30,0.12,3.24,0.00,11.87,17.72,21.36,15.25,50.76,1012.22,2073.03,2592.75,2440.91,2656.24,600.22,616.85,19.13,0000 0000 0000 0000 000000
2015-10-29 03:00:31,0.13,3.25,0.00,11.87,17.72,21.37,15.20,50.81,1012.22,2073.04,2590.98,2439.71,2654.76,599.97,616.64,19.18,0000 0000 0000 0000 000000
2015-10-29 03:05:33,0.11,3.25,0.00,11.86,17.71,21.36,15.19,50.72,1012.22,2073.02,2589.24,2438.46,2653.42,600.13,616.78,19.23,0000 0000 0000 0000 000000
2015-10-29 03:10:34,0.11,3.26,0.00,11.85,17.70,21.37,15.17,50.69,1012.22,2073.02,2587.57,2437.30,2652.06,599.79,616.49,19.28,0000 0000 0000 0000 000000
2015-10-29 03:15:36,0.12,3.26,0.00,11.85,17.70,21.34,15.17,50.64,1012.15,2073.02,2585.85,2436.05,2650.66,599.88,616.51,19.33,0000 0000 0000 0000 000000
2015-10-29 03:20:37,0.12,3.27,0.00,11.85,17.70,21.34,15.21,50.82,1011.76,2073.02,2584.09,2434.81,2649.35,599.66,616.04,19.38,0000 0000 0000 0000 000000
2015-10-29 03:25:38,0.12,3.28,0.00,11.84,17.69,21.36,15.19,50.87,1011.69,2073.03,2582.31,2433.62,2647.93,599.96,616.32,19.43,0000 0000 0000 0000 000000
2015-10-29 03:30:40,0.12,3.28,0.00,11.84,17.69,21.36,15.13,50.73,1011.57,2073.02,2580.62,2432.42,2646.56,599.80,616.06,19.48,0000 0000 0000 0000 000000
2015-10-29 03:35:41,0.12,3.29,0.00,11.84,17.69,21.34,15.25,50.90,1011.66,2073.03,2578.85,2431.28,2645.17,600.00,616.25,19.53,0000 0000 0000 0000 000000
2015-10-29 03:40:42,0.13,3.29,0.00,11.86,17.69,21.35,15.25,51.12,1011.73,2073.05,2577.06,2429.79,2643.49,600.50,616.79,19.58,0000 0000 0000 0000 000000
2015-10-29 03:45:44,0.13,3.30,0.00,11.87,17.69,21.31,15.21,51.14,1011.73,2073.02,2575.10,2428.25,2641.78,599.75,616.19,19.63,0000 0000 0000 0000 000000
2015-10-29 03:50:45,0.11,3.31,0.00,11.87,17.69,21.31,15.11,50.78,1011.73,2073.03,2573.46,2427.05,2640.51,599.61,616.00,19.68,0000 0000 0000 0000 000000
2015-10-29 03:55:46,0.10,3.31,0.00,11.88,17.69,21.33,15.18,50.91,1011.95,2073.02,2571.90,2425.95,2639.30,600.18,616.64,19.73,0000 0000 0000 0000 000000
2015-10-29 04:00:48,0.12,3.32,0.00,11.89,17.69,21.31,15.27,50.98,1012.22,2073.03,2570.30,2424.85,2637.97,600.25,616.84,19.78,0000 0000 0000 0000 000000
2015-10-29 04:05:49,0.12,3.32,0.00,11.89,17.69,21.31,15.26,50.95,1012.22,2073.03,2568.64,2423.63,2636.65,600.14,616.73,19.83,0000 0000 0000 0000 000000
2015-10-29 04:10:50,0.11,3.33,0.00,11.89,17.69,21.31,15.15,50.92,1012.22,2073.04,2566.90,2422.40,2635.31,600.17,616.77,19.88,0000 0000 0000 0000 000000
2015-10-29 04:15:51,0.12,3.34,0.00,11.91,17.69,21.31,15.19,50.94,1012.22,2073.03,2565.11,2421.10,2633.78,599.92,616.38,19.93,0000 0000 0000 0000 000000
2015-10-29 04:20:53,0.11,3.34,0.00,11.92,17.69,21.29,15.30,50.88,1012.23,2073.02,2563.49,2419.89,2632.49,600.10,616.60,19.98,0000 0000 0000 0000 000000
2015-10-29 04:25:54,0.10,3.35,0.00,11.92,17.69,21.30,15.18,50.92,1012.23,2073.01,2561.98,2418.75,2631.30,599.98,616.52,20.03,0000 0000 0000 0000 000000
2015-10-29 04:30:55,0.11,3.35,0.00,11.93,17.69,21.30,15.29,50.89,1012.23,2073.02,2560.46,2417.67,2630.01,600.30,616.89,20.08,0000 0000 0000 0000 000000
2015-10-29 04:35:56,0.11,3.36,0.00,11.94,17.70,21.31,15.23,50.89,1012.22,2073.03,2558.95,2416.47,2628.70,600.06,616.55,20.13,0000 0000 0000 0000 000000
2015-10-29 04:40:57,0.11,3.37,0.00,11.94,17.71,21.30,15.28,50.78,1012.23,2073.04,2557.41,2415.37,2627.43,600.17,616.66,20.18,0000 0000 0000 0000 000000
2015-10-29 04:45:59,0.10,3.37,0.00,11.94,17.72,21.30,15.19,50.91,1012.22,2073.02,2555.76,2414.20,2626.15,600.15,616.64,20.23,0000 0000 0000 0000 000000
2015-10-29 04:51:00,0.11,3.38,0.00,11.95,17.72,21.32,15.28,50.99,1012.26,2073.02,2554.29,2413.02,2624.85,600.40,616.80,20.28,0000 0000 0000 0000 000000
2015-10-29 04:56:01,0.12,3.38,0.00,11.96,17.72,21.32,15.19,50.72,1012.30,2073.02,2552.66,2411.88,2623.61,599.62,615.82,20.33,0000 0000 0000 0000 000000
2015-10-29 05:01:02,0.12,3.39,0.00,11.97,17.72,21.33,15.15,50.82,1012.35,2073.02,2550.99,2410.71,2622.47,599.86,616.32,20.38,0000 0000 0000 0000 000000
2015-10-29 05:06:03,0.10,3.39,0.00,11.97,17.74,21.31,15.16,50.92,1012.37,2073.01,2549.47,2409.62,2621.23,599.85,616.44,20.43,0000 0000 0000 0000 000000
2015-10-29 05:11:04,0.11,3.40,0.00,11.98,17.74,21.32,15.17,50.96,1012.28,2073.00,2547.89,2408.47,2619.96,599.94,616.46,20.48,0000 0000 0000 0000 000000
2015-10-29 05:16:06,0.11,3.41,0.00,11.99,17.74,21.33,15.19,51.03,1012.25,2073.01,2546.35,2407.43,2618.75,599.85,616.29,20.53,0000 0000 0000 0000 000000
2015-10-29 05:21:07,0.12,3.41,0.00,12.00,17.74,21.34,15.27,51.04,1012.29,2073.01,2544.58,2406.16,2617.34,600.09,616.50,20.58,0000 0000 0000 0000 000000
2015-10-29 05:26:08,0.13,3.42,0.00,12.02,17.75,21.31,15.22,50.99,1012.37,2073.01,2542.80,2404.91,2615.91,600.00,616.37,20.63,0000 0000 0000 0000 000000
2015-10-29 05:31:09,0.12,3.42,0.00,12.02,17.76,21.34,15.26,50.90,1012.36,2073.00,2541.08,2403.69,2614.55,600.15,616.62,20.68,0000 0000 0000 0000 000000
2015-10-29 05:36:11,0.11,3.43,0.00,12.04,17.77,21.35,15.17,50.79,1012.23,2073.00,2539.33,2402.50,2613.10,599.61,615.88,20.73,0000 0000 0000 0000 000000
2015-10-29 05:41:12,0.12,3.44,0.00,12.04,17.77,21.35,15.24,50.92,1012.22,2073.00,2537.58,2401.33,2611.73,600.25,616.56,20.78,0000 0000 0000 0000 000000
2015-10-29 05:46:13,0.10,3.44,0.00,12.04,17.77,21.34,15.22,51.04,1012.22,2073.00,2536.01,2400.20,2610.48,599.96,616.22,20.83,0000 0000 0000 0000 000000
2015-10-29 05:51:15,0.13,3.45,0.00,12.04,17.77,21.36,15.19,51.14,1012.10,2073.00,2534.21,2398.88,2609.00,600.20,616.49,20.88,0000 0000 0000 0000 000000
2015-10-29 05:56:16,0.17,3.46,0.00,12.02,17.78,21.38,15.30,51.34,1011.76,2073.00,2532.00,2397.18,2607.12,600.06,616.04,20.93,0000 0000 0000 0000 000000
2015-10-29 06:01:17,0.16,3.47,0.00,12.00,17.78,21.39,15.27,51.28,1011.73,2073.00,2529.85,2395.34,2605.09,600.31,616.38,20.98,0000 0000 0000 0000 000000
2015-10-29 06:06:19,0.15,3.47,0.00,11.99,17.78,21.41,15.26,51.29,1011.73,2073.00,2527.87,2393.73,2603.34,600.58,616.71,21.03,0000 0000 0000 0000 000000
2015-10-29 06:11:20,0.13,3.48,0.00,11.97,17.77,21.41,15.25,51.27,1011.78,2073.00,2526.03,2392.15,2601.55,599.98,616.35,21.08,0000 0000 0000 0000 000000
2015-10-29 06:16:22,0.11,3.49,0.00,11.94,17.77,21.40,15.13,51.06,1012.16,2073.00,2524.47,2390.85,2600.28,599.78,616.16,21.13,0000 0000 0000 0000 000000
2015-10-29 06:21:23,0.10,3.49,0.00,11.94,17.77,21.41,15.25,51.04,1012.22,2073.00,2522.99,2389.78,2599.10,600.01,616.48,21.18,0000 0000 0000 0000 000000
2015-10-29 06:26:25,0.10,3.50,0.00,11.95,17.77,21.40,15.16,51.00,1012.31,2073.00,2521.65,2388.82,2597.94,599.90,616.42,21.23,0000 0000 0000 0000 000000
2015-10-29 06:31:26,0.11,3.50,0.00,11.97,17.77,21.42,15.30,50.93,1012.53,2073.00,2520.21,2387.75,2596.77,600.44,617.05,21.28,0000 0000 0000 0000 000000
2015-10-29 06:36:27,0.11,3.51,0.00,11.97,17.77,21.42,15.18,50.97,1012.70,2073.00,2518.66,2386.70,2595.63,600.13,616.84,21.33,0000 0000 0000 0000 000000
2015-10-29 06:41:29,0.08,3.51,0.00,11.99,17.77,21.37,15.26,50.95,1012.71,2073.00,2517.27,2385.78,2594.57,600.27,616.89,21.38,0000 0000 0000 0000 000000
2015-10-29 06:46:30,0.11,3.52,0.00,11.99,17.77,21.37,15.27,50.80,1012.71,2073.00,2515.86,2384.67,2593.39,599.97,616.63,21.43,0000 0000 0000 0000 000000
2015-10-29 06:51:31,0.14,3.53,0.00,12.00,17.77,21.39,15.19,50.62,1012.71,2073.00,2514.10,2383.28,2591.82,600.10,616.67,21.48,0000 0000 0000 0000 000000
2015-10-29 06:56:32,0.16,3.53,0.00,12.02,17.77,21.41,15.16,50.94,1012.71,2073.00,2511.93,2381.67,2590.03,599.90,616.44,21.53,0000 0000 0000 0000 000000
2015-10-29 07:01:34,0.15,3.54,0.00,12.02,17.78,21.39,15.28,50.86,1012.71,2072.99,2509.91,2380.12,2588.27,600.20,616.73,21.58,0000 0000 0000 0000 000000
2015-10-29 07:06:35,0.15,3.55,0.00,12.03,17.79,21.39,15.29,50.93,1012.71,2072.99,2508.00,2378.44,2586.49,600.41,617.02,21.63,0000 0000 0000 0000 000000
2015-10-29 07:11:36,0.15,3.56,0.00,12.04,17.79,21.39,15.17,50.55,1012.71,2072.99,2506.21,2376.88,2584.85,600.06,616.61,21.68,0000 0000 0000 0000 000000
2015-10-29 07:16:38,0.12,3.56,0.00,12.04,17.79,21.40,15.22,50.66,1012.71,2072.98,2504.52,2375.56,2583.41,600.00,616.55,21.73,0000 0000 0000 0000 000000
2015-10-29 07:21:39,0.11,3.57,0.00,12.07,17.79,21.41,15.22,50.71,1012.71,2072.99,2502.98,2374.44,2582.18,600.05,616.56,21.78,0000 0000 0000 0000 000000
2015-10-29 07:26:40,0.11,3.58,0.00,12.07,17.79,21.42,15.20,50.83,1012.71,2072.98,2501.42,2373.26,2580.87,599.98,616.48,21.83,0000 0000 0000 0000 000000
2015-10-29 07:31:42,0.12,3.58,0.00,12.08,17.81,21.41,15.27,50.87,1012.71,2072.97,2499.80,2372.07,2579.63,600.36,616.78,21.88,0000 0000 0000 0000 000000
2015-10-29 07:36:43,0.11,3.59,0.00,12.09,17.82,21.39,15.20,50.58,1012.71,2072.96,2498.28,2370.92,2578.32,600.02,616.47,21.93,0000 0000 0000 0000 000000
2015-10-29 07:41:44,0.12,3.59,0.00,12.09,17.82,21.40,15.26,50.83,1012.71,2072.97,2496.77,2369.76,2576.96,599.96,616.37,21.98,0000 0000 0000 0000 000000
2015-10-29 07:46:46,0.12,3.60,0.00,12.09,17.82,21.42,15.17,50.68,1012.71,2072.97,2495.25,2368.53,2575.64,599.97,616.55,22.04,0000 0000 0000 0000 000000
2015-10-29 07:51:47,0.11,3.61,0.00,12.11,17.84,21.42,15.16,50.73,1012.69,2072.95,2493.55,2367.34,2574.30,600.03,616.44,22.09,0000 0000 0000 0000 000000
2015-10-29 07:56:49,0.09,3.61,0.00,12.12,17.84,21.45,15.31,50.86,1012.69,2072.95,2492.09,2366.44,2573.15,600.00,616.49,22.14,0000 0000 0000 0000 000000
2015-10-29 08:01:50,0.10,3.62,0.00,12.13,17.84,21.42,15.27,51.02,1012.67,2072.95,2490.70,2365.52,2572.06,600.49,616.79,22.19,0000 0000 0000 0000 000000
2015-10-29 08:06:51,0.11,3.62,0.00,12.14,17.84,21.45,15.21,50.98,1012.69,2072.95,2489.24,2364.48,2570.86,600.07,616.45,22.24,0000 0000 0000 0000 000000
2015-10-29 08:11:52,0.11,3.63,0.00,12.14,17.86,21.46,15.17,51.02,1012.65,2072.86,2487.56,2363.30,2569.51,599.94,616.25,22.29,0000 0000 0000 0000 000000
2015-10-29 08:16:54,0.10,3.63,0.00,12.14,17.87,21.48,15.28,51.24,1012.69,2072.71,2485.86,2361.98,2568.13,600.19,616.49,22.34,0000 0000 0000 0000 000000
2015-10-29 08:21:55,0.14,3.64,0.00,12.14,17.87,21.47,15.24,51.12,1012.69,2072.78,2484.15,2360.75,2566.70,600.13,616.49,22.39,0000 0000 0000 0000 000000
2015-10-29 08:26:57,0.11,3.65,0.00,12.14,17.87,21.45,15.28,51.23,1012.71,2072.81,2482.63,2359.64,2565.52,600.35,616.77,22.44,0000 0000 0000 0000 000000
2015-10-29 08:31:58,0.09,3.65,0.00,12.15,17.88,21.49,15.20,51.08,1012.71,2072.73,2481.26,2358.58,2564.33,599.95,616.28,22.49,0000 0000 0000 0000 000000
2015-10-29 08:36:59,0.07,3.66,0.00,12.17,17.89,21.48,15.25,51.02,1012.71,2072.63,2479.91,2357.59,2563.16,600.01,616.26,22.54,0000 0000 0000 0000 000000
2015-10-29 08:42:00,0.08,3.66,0.00,12.16,17.89,21.48,15.18,50.96,1012.71,2072.29,2478.40,2356.42,2561.88,599.81,615.99,22.59,0000 0000 0000 0000 000000
2015-10-29 08:47:02,0.12,3.66,0.00,12.17,17.89,21.50,15.21,51.09,1012.71,2072.17,2476.80,2355.37,2560.69,600.06,616.36,22.64,0000 0000 0000 0000 000000
2015-10-29 08:52:03,0.10,3.67,0.00,12.17,17.90,21.50,15.23,51.11,1012.78,2072.11,2475.23,2354.20,2559.41,600.30,616.64,22.69,0000 0000 0000 0000 000000
2015-10-29 08:57:04,0.10,3.68,0.00,12.17,17.92,21.52,15.12,50.92,1012.81,2072.11,2473.75,2353.11,2558.44,599.85,616.26,22.74,0000 0000 0000 0000 000000
2015-10-29 09:02:05,0.09,3.68,0.00,12.18,17.92,21.53,15.25,50.89,1012.79,2072.07,2472.33,2352.09,2557.27,599.76,616.08,22.79,0000 0000 0000 0000 000000
2015-10-29 09:07:07,0.11,3.69,0.00,12.19,17.92,21.51,15.29,51.20,1012.97,2072.07,2470.83,2351.10,2556.11,600.20,616.60,22.84,0000 0000 0000 0000 000000
2015-10-29 09:12:08,0.09,3.69,0.00,12.18,17.94,21.53,15.21,50.84,1012.99,2072.06,2469.56,2350.11,2555.05,599.91,616.32,22.89,0000 0000 0000 0000 000000
2015-10-29 09:17:09,0.10,3.70,0.00,12.17,17.94,21.54,15.16,50.91,1012.95,2072.06,2468.10,2349.10,2553.90,599.90,616.33,22.94,0000 0000 0000 0000 000000
2015-10-29 09:22:10,0.10,3.70,0.00,12.19,17.94,21.53,15.17,51.10,1012.84,2072.04,2466.74,2348.11,2552.80,600.31,616.48,22.99,0000 0000 0000 0000 000000
2015-10-29 09:27:11,0.10,3.71,0.00,12.19,17.95,21.54,15.22,51.15,1012.72,2072.04,2465.34,2347.10,2551.67,600.14,616.25,23.04,0000 0000 0000 0000 000000
2015-10-29 09:32:13,0.10,3.71,0.00,12.20,17.96,21.53,15.24,51.23,1012.74,2072.03,2463.93,2346.06,2550.51,600.14,616.48,23.09,0000 0000 0000 0000 000000
2015-10-29 09:37:14,0.11,3.72,0.00,12.21,17.97,21.57,15.20,51.23,1012.92,2072.01,2462.49,2344.99,2549.32,600.08,616.40,23.14,0000 0000 0000 0000 000000
2015-10-29 09:42:16,0.11,3.72,0.00,12.22,17.97,21.57,15.29,51.27,1012.84,2072.01,2460.86,2343.90,2548.06,600.29,616.55,23.19,0000 0000 0000 0000 000000
2015-10-29 09:47:17,0.10,3.73,0.00,12.22,17.97,21.57,15.23,51.23,1012.75,2072.00,2459.49,2342.86,2546.88,599.78,615.98,23.24,0000 0000 0000 0000 000000
2015-10-29 09:52:19,0.12,3.73,0.00,12.22,17.98,21.57,15.21,51.13,1012.71,2072.00,2457.95,2341.81,2545.72,599.70,615.81,23.29,0000 0000 0000 0000 000000
2015-10-29 09:57:20,0.11,3.74,0.00,12.22,17.99,21.59,15.16,51.06,1012.71,2072.00,2456.47,2340.69,2544.48,599.74,615.72,23.34,0000 0000 0000 0000 000000
2015-10-29 10:02:21,0.11,3.75,0.00,12.22,17.99,21.63,15.18,51.00,1012.72,2072.00,2454.91,2339.60,2543.33,599.81,616.08,23.39,0000 0000 0000 0000 000000
2015-10-29 10:07:23,0.12,3.75,0.00,12.22,17.99,21.60,15.25,50.99,1012.71,2072.00,2453.32,2338.44,2541.88,600.34,616.53,23.44,0000 0000 0000 0000 000000
2015-10-29 10:12:24,0.12,3.76,0.00,12.23,17.99,21.60,15.22,50.77,1012.74,2072.00,2451.68,2337.26,2540.58,599.98,616.17,23.49,0000 0000 0000 0000 000000
2015-10-29 10:17:25,0.10,3.76,0.00,12.23,18.00,21.56,15.18,50.92,1012.73,2072.00,2450.11,2336.18,2539.38,599.98,616.21,23.54,0000 0000 0000 0000 000000
2015-10-29 10:22:27,0.11,3.77,0.00,12.22,18.00,21.60,15.19,50.95,1012.72,2072.00,2448.48,2335.08,2538.10,599.51,615.69,23.59,0000 0000 0000 0000 000000
2015-10-29 10:27:28,0.13,3.78,0.00,12.22,18.01,21.60,15.28,51.02,1012.70,2071.99,2446.78,2333.91,2536.72,600.05,616.22,23.64,0000 0000 0000 0000 000000
2015-10-29 10:32:30,0.11,3.78,0.00,12.22,18.02,21.62,15.25,51.07,1012.66,2071.99,2445.29,2332.79,2535.56,600.08,616.06,23.69,0000 0000 0000 0000 000000
2015-10-29 10:37:31,0.11,3.79,0.00,12.23,18.02,21.62,15.16,50.88,1012.37,2071.99,2443.75,2331.73,2534.37,600.08,616.03,23.74,0000 0000 0000 0000 000000
2015-10-29 10:42:33,0.11,3.79,0.00,12.24,18.02,21.58,15.22,50.98,1012.23,2071.98,2442.10,2330.61,2533.07,600.18,616.03,23.79,0000 0000 0000 0000 000000
2015-10-29 10:47:34,0.10,3.80,0.00,12.25,18.02,21.64,15.19,50.89,1012.25,2071.98,2440.64,2329.64,2531.93,600.06,615.88,23.84,0000 0000 0000 0000 000000
2015-10-29 10:52:35,0.11,3.81,0.00,12.27,18.02,21.62,15.21,50.75,1012.45,2071.99,2439.19,2328.59,2530.75,600.27,616.19,23.89,0000 0000 0000 0000 000000
2015-10-29 10:57:37,0.11,3.81,0.00,12.28,18.02,21.64,15.22,50.87,1012.43,2071.98,2437.67,2327.54,2529.57,600.09,616.03,23.94,0000 0000 0000 0000 000000
2015-10-29 11:02:38,0.10,3.82,0.00,12.29,18.04,21.63,15.26,51.04,1012.38,2071.96,2436.27,2326.52,2528.39,600.32,616.11,23.99,0000 0000 0000 0000 000000
2015-10-29 11:07:40,0.11,3.82,0.00,12.28,18.04,21.61,15.18,51.09,1012.27,2071.98,2434.78,2325.45,2527.28,599.89,615.65,24.04,0000 0000 0000 0000 000000
2015-10-29 11:12:41,0.10,3.83,0.00,12.29,18.04,21.63,15.15,50.79,1012.23,2071.98,2433.39,2324.47,2526.00,599.83,615.68,24.09,0000 0000 0000 0000 000000
2015-10-29 11:17:42,0.11,3.83,0.00,12.29,18.04,21.64,15.16,50.94,1012.22,2071.98,2431.93,2323.39,2524.85,600.13,615.85,24.14,0000 0000 0000 0000 000000
2015-10-29 11:22:44,0.12,3.84,0.00,12.30,18.06,21.60,15.14,50.83,1012.22,2071.97,2430.32,2322.29,2523.60,599.78,615.49,24.19,0000 0000 0000 0000 000000
2015-10-29 11:27:45,0.11,3.85,0.00,12.32,18.07,21.64,15.26,51.09,1012.15,2071.96,2428.73,2321.30,2522.43,600.24,615.91,24.24,0000 0000 0000 0000 000000
2015-10-29 11:32:46,0.10,3.85,0.00,12.32,18.07,21.64,15.11,50.88,1011.99,2071.96,2427.34,2320.24,2521.22,599.62,615.07,24.29,0000 0000 0000 0000 000000
2015-10-29 11:37:47,0.11,3.86,0.00,12.32,18.07,21.65,15.17,50.95,1011.78,2071.95,2425.82,2319.28,2520.07,599.90,615.30,24.34,0000 0000 0000 0000 000000
2015-10-29 11:42:49,0.10,3.86,0.00,12.32,18.07,21.65,15.25,50.94,1011.83,2071.85,2424.25,2318.06,2518.71,600.31,615.80,24.39,0000 0000 0000 0000 000000
2015-10-29 11:47:50,0.13,3.87,0.00,12.33,18.08,21.66,15.16,50.88,1011.80,2071.91,2422.66,2316.92,2517.53,599.56,614.90,24.44,0000 0000 0000 0000 000000
2015-10-29 11:52:51,0.13,3.87,0.00,12.34,18.09,21.67,15.16,51.12,1011.77,2071.90,2420.94,2315.70,2515.99,600.32,615.84,24.49,0000 0000 0000 0000 000000
2015-10-29 11:57:53,0.12,3.88,0.00,12.34,18.09,21.66,15.09,50.92,1011.90,2071.86,2419.36,2314.56,2514.70,599.66,615.07,24.54,0000 0000 0000 0000 000000
2015-10-29 12:02:54,0.11,3.89,0.00,12.34,18.09,21.69,15.20,51.07,1012.16,2071.76,2417.80,2313.48,2513.45,600.07,615.66,24.59,0000 0000 0000 0000 000000
2015-10-29 12:07:55,0.10,3.89,0.00,12.34,18.09,21.71,15.20,51.20,1012.22,2071.73,2416.20,2312.38,2512.18,600.27,615.99,24.64,0000 0000 0000 0000 000000
2015-10-29 12:12:57,0.11,3.90,0.00,12.34,18.10,21.73,15.27,51.14,1012.22,2071.47,2414.48,2311.08,2510.74,600.19,615.88,24.69,0000 0000 0000 0000 000000
2015-10-29 12:17:58,0.13,3.90,0.00,12.34,18.11,21.72,15.25,51.22,1012.22,2071.49,2412.80,2309.91,2509.44,600.16,615.78,24.74,0000 0000 0000 0000 000000
2015-10-29 12:22:59,0.10,3.91,0.00,12.34,18.12,21.72,15.20,50.86,1012.22,2071.26,2411.26,2308.81,2508.16,599.63,615.35,24.79,0000 0000 0000 0000 000000
2015-10-29 12:28:00,0.13,3.92,0.00,12.34,18.12,21.72,15.24,51.17,1012.22,2071.39,2409.64,2307.70,2506.84,600.01,615.48,24.84,0000 0000 0000 0000 000000
2015-10-29 12:33:01,0.10,3.92,0.00,12.35,18.12,21.72,15.25,51.24,1012.20,2071.25,2408.01,2306.60,2505.59,599.73,615.35,24.89,0000 0000 0000 0000 000000
2015-10-29 12:38:02,0.11,3.93,0.00,12.35,18.12,21.73,15.18,51.11,1012.02,2071.18,2406.47,2305.52,2504.39,600.16,615.63,24.94,0000 0000 0000 0000 000000
2015-10-29 12:43:04,0.11,3.93,0.00,12.35,18.12,21.73,15.11,51.27,1011.83,2071.12,2404.83,2304.41,2503.10,599.98,615.38,24.99,0000 0000 0000 0000 000000
2015-10-29 12:48:05,0.11,3.94,0.00,12.34,18.12,21.71,15.08,50.85,1011.81,2071.04,2403.25,2303.27,2501.78,599.50,614.89,25.04,0000 0000 0000 0000 000000
2015-10-29 12:53:06,0.12,3.94,0.00,12.35,18.13,21.75,15.03,50.86,1011.87,2071.03,2401.64,2302.33,2500.56,599.45,614.83,25.09,0000 0000 0000 0000 000000
2015-10-29 12:58:07,0.10,3.95,0.00,12.36,18.14,21.74,15.13,50.85,1012.15,2071.03,2400.15,2301.27,2499.38,599.90,615.43,25.14,0000 0000 0000 0000 000000